Home > Weather > Sidon > Past weeks

Flag for Lebanon Weather for the Past 2 Weeks in Sidon, Lebanon

Now
57 °F

Light rain. Partly sunny.


Feels Like: 54 °F
Forecast: 59 / 64 °F
Wind: 14 mph from Southwest

Location: Beirut Airport

Current Time: Feb 6, 2016 at 4:36:13 PM

Latest Report: Feb 6, 2016 at 4:00 PM


Visibility: 3 mi

Pressure: 29.92 "Hg

Humidity: 67%

Dew point: 46 °F

Location of SidonLocation

Historic Weather in Sidon — Graph

°F

Sidon Temperature Yesterday

Maximum temperature yesterday: 75 °F (at 1:00 PM)
Minimum temperature yesterday: 55 °F (at 6:00 AM)
Average temperature yesterday: 64 °F

High & Low Weather Summary for the Past Weeks

 TemperatureHumidityPressure
High75 °F (Feb 5, 1:00 PM)88% (Jan 23, 2:00 AM)30.48 "Hg (Jan 23, 2:00 AM)
Low39 °F (Jan 28, 7:00 AM)19% (Jan 28, 1:00 PM)29.89 "Hg (Feb 6, 3:00 PM)
Average56 °F58%30.22 "Hg
* Reported Jan 22 3:00 PM — Feb 6 3:00 PM, Sidon, Weather by CustomWeather, © 2016

Note: Actual official high and low records may vary slightly from our data, if they occured in-between our weather recording intervals... More about our weather records

Advertising

Sidon Weather History for the Previous 24 Hours

 ConditionsComfort  
Time TempWeatherWind HumidityBarometerVisibility
3:00 PM
Sat, Feb 6
55 °FRain. Partly sunny.18 mph72%29.89 "Hg3 mi
2:00 PM55 °FRain. Partly sunny.16 mph82%29.92 "Hg3 mi
1:00 PM54 °FRain. Partly sunny.22 mph82%29.92 "Hg3 mi
12:00 PM57 °FRain. Partly sunny.21 mph82%29.95 "Hg3 mi
11:00 AM59 °FRain. Partly sunny.15 mph68%29.98 "Hg3 mi
10:00 AM61 °FPartly sunny.28 mph68%29.95 "Hg4 mi
9:00 AM59 °FRain. Partly sunny.15 mph77%29.95 "Hg3 mi
8:00 AM59 °FRain. Partly sunny.14 mph72%29.95 "Hg3 mi
7:00 AM57 °FThunderstorms. Partly sunny.14 mph88%29.95 "Hg2 mi
6:00 AM57 °FThunderstorms. Passing clouds.14 mph88%29.95 "Hg2 mi
5:00 AM59 °FThunderstorms. Passing clouds.22 mph77%29.95 "Hg2 mi
4:00 AM61 °FPassing clouds.14 mph59%29.95 "Hg5 mi
3:00 AM61 °FPassing clouds.14 mph59%29.95 "Hg5 mi
2:00 AM61 °FPassing clouds.16 mph72%30.01 "Hg5 mi
1:00 AM63 °FLight rain. Passing clouds.16 mph68%30.01 "Hg4 mi
12:00 AM61 °FPassing clouds.14 mph72%30.01 "Hg5 mi
11:00 PM
Fri, Feb 5
63 °FPassing clouds.15 mph73%30.01 "Hg5 mi
10:00 PM63 °FPassing clouds.12 mph73%30.01 "Hg5 mi
9:00 PM63 °FPassing clouds.9 mph68%30.01 "Hg5 mi
8:00 PM63 °FPassing clouds.13 mph64%30.01 "Hg5 mi
7:00 PM64 °FPassing clouds.12 mph52%30.01 "Hg5 mi
6:00 PM64 °FPassing clouds.7 mph64%29.98 "Hg5 mi
5:00 PM68 °FPartly sunny.3 mph43%29.98 "Hg5 mi
4:00 PM70 °FPartly sunny.2 mph40%29.95 "Hg5 mi
Weather by CustomWeather, © 2016

See weather overviewHow to use our weather pages